707  
ASUS43 KGLD 280208  
RWRGLD  
 
GOODLAND FORECAST AREA HOURLY WEATHER ROUNDUP  
NATIONAL WEATHER SERVICE GOODLAND KS  
800 PM MDT MON MAR 27 2017  
   
..OFFICIAL OBSERVATIONS
 
 
 
CITY SKY/WX TMP DP RH WIND PRES REMARKS
 
GOODLAND KS CLEAR 52 41 66 SE10 29.86R  
HILL CITY KS PTCLDY 53 42 66 E12 29.92R  
IMPERIAL NEB CLEAR 51 39 63 SE10 29.86R  
MCCOOK NEB CLEAR 52 42 69 E9 29.89R  
AKRON CO CLOUDY 51 35 54 SE13 29.82S  
BURLINGTON CO CLEAR 51 40 65 SE12 29.86R  
LIMON CO CLOUDY 48 37 65 E10 29.84R  

 
   
..UNOFFICIAL OBSERVATIONS
 
 
 
CITY SKY/WX TMP DP RH WIND PRES REMARKS
 
NORTON KS CLEAR 48 37 66 E9 29.92R  
SHARON SPRINGS N/A 52 41 67 S8 N/A  
TRENTON NEB N/A 51 32 48 SE7 N/A  
KIT CARSON CO N/A 53 37 55 MISG N/A  
YUMA CO FAIR 50 36 57 SE9 29.83S  

 
 
 
CLICK HERE TO GO TO PREVIOUS BULLETINS.

The Nexlab KS Page
The Nexlab CO Page
The Nexlab NE Page Main Text Page